This is the latest recevied weather packets stored in our database for station/object KE8GJZ-2. If no packets are shown the sender has not sent any weather packets the latest 10 day(s).
| Time | Temp. | Humidity | Pressure | Rain* | Wind** | Luminosity | Snow |
|---|---|---|---|---|---|---|---|
| 1778132591 | 7.22° C | 77% | 1013.8 hPa | 0 mm | - | 0 W/m² | - |
| 1778132289 | 6.67° C | 76% | 1013.9 hPa | 0 mm | - | 0 W/m² | - |
| 1778131986 | 7.22° C | 76% | 1013.6 hPa | 0 mm | - | 0 W/m² | - |
| 1778131685 | 7.22° C | 75% | 1013.7 hPa | 0 mm | - | 0 W/m² | - |
| 1778131381 | 7.22° C | 73% | 1013.8 hPa | 0 mm | - | 0 W/m² | - |
| 1778131079 | 7.22° C | 72% | 1013.8 hPa | 0 mm | - | 0 W/m² | - |
| 1778130776 | 7.22° C | 74% | 1013.8 hPa | 0 mm | - | 0 W/m² | - |
| 1778130473 | 7.22° C | 72% | 1013.7 hPa | 0 mm | - | 0 W/m² | - |
| 1778130169 | 7.22° C | 71% | 1013.6 hPa | 0 mm | - | 0 W/m² | - |
| 1778129866 | 7.78° C | 69% | 1013.8 hPa | 0 mm | - | 0 W/m² | - |
| 1778129562 | 7.78° C | 69% | 1013.6 hPa | 0 mm | - | 0 W/m² | - |
| 1778129260 | 7.78° C | 68% | 1013.6 hPa | 0 mm | - | 0 W/m² | - |
| 1778128956 | 7.78° C | 70% | 1013.5 hPa | 0 mm | - | 0 W/m² | - |
| 1778128652 | 7.78° C | 70% | 1013.4 hPa | 0 mm | - | 0 W/m² | - |
| 1778128349 | 7.22° C | 73% | 1013.5 hPa | 0 mm | - | 0 W/m² | - |
| 1778128046 | 7.22° C | 75% | 1013.5 hPa | 0 mm | - | 0 W/m² | - |
| 1778127740 | 6.67° C | 72% | 1013.7 hPa | 0 mm | - | 0 W/m² | - |
| 1778127438 | 6.67° C | 70% | 1013.4 hPa | 0 mm | - | 0 W/m² | - |
| 1778127135 | 6.67° C | 69% | 1013.5 hPa | 0 mm | - | 0 W/m² | - |
| 1778126832 | 6.67° C | 68% | 1013.4 hPa | 0 mm | - | 0 W/m² | - |
| 1778126528 | 6.67° C | 69% | 1013.5 hPa | 0 mm | - | 0 W/m² | - |
| 1778126224 | 6.67° C | 69% | 1013.6 hPa | 0 mm | - | 0 W/m² | - |
| 1778125920 | 6.67° C | 68% | 1013.5 hPa | 0 mm | - | 0 W/m² | - |
| 1778125616 | 6.67° C | 68% | 1013.6 hPa | 0 mm | - | 0 W/m² | - |
| 1778125315 | 6.67° C | 67% | 1013.6 hPa | 0 mm | - | 0 W/m² | - |
* Rain latest hour (hover to see other rain measurements)
** Current wind speed in m/s (hover to see current wind gust speed)